Hourly Weather Ruhan

Today, 19 April, Monday

Time Temperature Precipitation Wind Pressure Humidity
00:00 +4°C° 0 mm 2 mps 748 mmHg 94%
01:00 +3°C° 0 mm 2 mps 748 mmHg 94%
02:00 +3°C° 0 mm 2 mps 748 mmHg 95%
03:00 +3°C° 0 mm 2 mps 748 mmHg 94%
04:00 +3°C° 0 mm 2 mps 748 mmHg 94%
05:00 +3°C° 0 mm 2 mps 748 mmHg 93%
06:00 +3°C° 0 mm 3 mps 748 mmHg 91%
07:00 +5°C° 0 mm 3 mps 748 mmHg 88%
08:00 +6°C° 0 mm 4 mps 748 mmHg 86%
09:00 +7°C° 0.1 mm 4 mps 748 mmHg 82%
10:00 +7°C° 0.1 mm 5 mps 748 mmHg 78%
11:00 +8°C° 0.1 mm 5 mps 748 mmHg 74%
12:00 +8°C° 0.1 mm 5 mps 748 mmHg 74%
13:00 +8°C° 0.1 mm 5 mps 748 mmHg 74%
14:00 +8°C° 0.1 mm 4 mps 748 mmHg 74%
15:00 +8°C° 0 mm 4 mps 748 mmHg 78%
16:00 +7°C° 0 mm 4 mps 748 mmHg 82%
17:00 +6°C° 0 mm 4 mps 748 mmHg 86%
18:00 +6°C° 0 mm 4 mps 747 mmHg 87%
19:00 +5°C° 0 mm 4 mps 747 mmHg 88%
20:00 +5°C° 0 mm 4 mps 747 mmHg 89%
21:00 +5°C° 0.1 mm 4 mps 747 mmHg 90%
22:00 +4°C° 0.1 mm 4 mps 747 mmHg 91%
23:00 +4°C° 0.1 mm 4 mps 747 mmHg 92%

Tomorrow, 20 April, Tuesday

Time Temperature Precipitation Wind Pressure Humidity
00:00 +4°C° 0 mm 4 mps 746 mmHg 92%
01:00 +4°C° 0 mm 4 mps 746 mmHg 93%
02:00 +4°C° 0 mm 4 mps 745 mmHg 93%
03:00 +4°C° 0.1 mm 4 mps 745 mmHg 93%
04:00 +4°C° 0.1 mm 4 mps 745 mmHg 94%
05:00 +4°C° 0.1 mm 4 mps 745 mmHg 94%
06:00 +4°C° 0.3 mm 4 mps 745 mmHg 94%
07:00 +3°C° 0.3 mm 4 mps 744 mmHg 94%
08:00 +3°C° 0.3 mm 4 mps 744 mmHg 94%
09:00 +3°C° 0 mm 4 mps 744 mmHg 94%
10:00 +4°C° 0 mm 4 mps 744 mmHg 94%
11:00 +4°C° 0 mm 4 mps 744 mmHg 94%
12:00 +4°C° 0.5 mm 4 mps 743 mmHg 94%
13:00 +5°C° 0.5 mm 4 mps 743 mmHg 93%
14:00 +5°C° 0.5 mm 4 mps 743 mmHg 93%
15:00 +5°C° 0.8 mm 4 mps 742 mmHg 93%
16:00 +5°C° 0.8 mm 4 mps 742 mmHg 94%
17:00 +4°C° 0.8 mm 4 mps 741 mmHg 95%
18:00 +4°C° 0.4 mm 4 mps 741 mmHg 95%
19:00 +3°C° 0.4 mm 4 mps 741 mmHg 96%
20:00 +3°C° 0.4 mm 4 mps 741 mmHg 96%
21:00 +3°C° 0 mm 3 mps 740 mmHg 97%
22:00 +3°C° 0 mm 3 mps 740 mmHg 97%
23:00 +2°C° 0 mm 3 mps 739 mmHg 97%

Day after tomorrow, 21 April, Wednesday

Time Temperature Precipitation Wind Pressure Humidity
00:00 +2°C° 0 mm 3 mps 739 mmHg 97%
01:00 +2°C° 0 mm 3 mps 739 mmHg 97%
02:00 +2°C° 0 mm 3 mps 738 mmHg 97%
03:00 +2°C° 0 mm 3 mps 738 mmHg 96%
04:00 +2°C° 0 mm 3 mps 738 mmHg 96%
05:00 +2°C° 0 mm 3 mps 738 mmHg 95%
06:00 +2°C° 0 mm 3 mps 738 mmHg 92%
07:00 +3°C° 0 mm 4 mps 738 mmHg 89%
08:00 +3°C° 0 mm 4 mps 739 mmHg 87%
09:00 +4°C° 0 mm 4 mps 739 mmHg 85%
10:00 +4°C° 0 mm 4 mps 739 mmHg 83%
11:00 +5°C° 0 mm 4 mps 739 mmHg 82%
12:00 +5°C° 0.1 mm 4 mps 740 mmHg 82%
13:00 +5°C° 0.1 mm 4 mps 740 mmHg 82%
14:00 +5°C° 0.1 mm 4 mps 740 mmHg 82%
15:00 +5°C° 0.1 mm 4 mps 740 mmHg 80%
16:00 +7°C° 0.1 mm 3 mps 741 mmHg 77%
17:00 +7°C° 0.1 mm 3 mps 741 mmHg 74%
18:00 +7°C° 0 mm 3 mps 741 mmHg 78%
19:00 +5°C° 0 mm 3 mps 741 mmHg 83%
20:00 +4°C° 0 mm 3 mps 742 mmHg 88%
21:00 +4°C° 0 mm 3 mps 741 mmHg 87%
22:00 +4°C° 0 mm 3 mps 741 mmHg 87%
23:00 +5°C° 0 mm 3 mps 741 mmHg 87%

22 April, Thursday

Time Temperature Precipitation Wind Pressure Humidity
00:00 +5°C° 0.2 mm 3 mps 741 mmHg 88%
01:00 +5°C° 0.2 mm 3 mps 741 mmHg 89%
02:00 +5°C° 0.2 mm 3 mps 741 mmHg 90%
03:00 +4°C° 0.1 mm 3 mps 742 mmHg 92%
04:00 +4°C° 0.1 mm 3 mps 742 mmHg 94%
05:00 +3°C° 0.1 mm 3 mps 742 mmHg 96%
06:00 +5°C° 0 mm 3 mps 743 mmHg 90%
07:00 +7°C° 0 mm 3 mps 743 mmHg 85%
08:00 +9°C° 0 mm 3 mps 743 mmHg 80%
09:00 +9°C° 0.2 mm 3 mps 744 mmHg 79%
10:00 +10°C° 0.2 mm 3 mps 744 mmHg 79%
11:00 +10°C° 0.2 mm 3 mps 744 mmHg 78%
12:00 +11°C° 0.2 mm 4 mps 744 mmHg 73%
13:00 +13°C° 0.2 mm 4 mps 744 mmHg 68%
14:00 +14°C° 0.2 mm 5 mps 744 mmHg 62%
15:00 +14°C° 0.5 mm 5 mps 744 mmHg 65%
16:00 +13°C° 0.5 mm 4 mps 744 mmHg 68%
17:00 +13°C° 0.5 mm 4 mps 744 mmHg 71%
18:00 +12°C° 0.2 mm 3 mps 744 mmHg 76%
19:00 +10°C° 0.2 mm 3 mps 745 mmHg 81%
20:00 +9°C° 0.2 mm 2 mps 745 mmHg 86%
21:00 +8°C° 0 mm 2 mps 745 mmHg 88%
22:00 +8°C° 0 mm 2 mps 745 mmHg 90%
23:00 +7°C° 0 mm 2 mps 745 mmHg 92%

23 April, Friday

Time Temperature Precipitation Wind Pressure Humidity
00:00 +7°C° 0 mm 2 mps 745 mmHg 92%
01:00 +7°C° 0 mm 3 mps 744 mmHg 93%
02:00 +5°C° 0 mm 3 mps 744 mmHg 93%
03:00 +7°C° 0 mm 3 mps 744 mmHg 92%
04:00 +6°C° 0 mm 4 mps 744 mmHg 91%
05:00 +6°C° 0 mm 4 mps 744 mmHg 89%
06:00 +7°C° 0 mm 4 mps 743 mmHg 85%
07:00 +9°C° 0 mm 5 mps 743 mmHg 80%
08:00 +12°C° 0 mm 5 mps 743 mmHg 76%
09:00 +13°C° 0.2 mm 6 mps 743 mmHg 71%
10:00 +14°C° 0.2 mm 6 mps 742 mmHg 67%
11:00 +15°C° 0.2 mm 7 mps 742 mmHg 63%
12:00 +12°C° 0.6 mm 7 mps 742 mmHg 70%
13:00 +10°C° 0.6 mm 7 mps 742 mmHg 78%
14:00 +8°C° 0.6 mm 6 mps 743 mmHg 85%
15:00 +7°C° 0.3 mm 5 mps 743 mmHg 85%
16:00 +6°C° 0.3 mm 4 mps 743 mmHg 85%
17:00 +5°C° 0.3 mm 3 mps 744 mmHg 85%
18:00 +5°C° 0 mm 3 mps 744 mmHg 86%
19:00 +5°C° 0 mm 2 mps 744 mmHg 87%
20:00 +5°C° 0 mm 2 mps 744 mmHg 88%
21:00 +4°C° 0 mm 2 mps 744 mmHg 89%
22:00 +4°C° 0 mm 2 mps 744 mmHg 91%
23:00 +3°C° 0 mm 3 mps 744 mmHg 92%

24 April, Saturday

Time Temperature Precipitation Wind Pressure Humidity
00:00 +3°C° 0 mm 3 mps 744 mmHg 92%
01:00 +4°C° 0 mm 2 mps 743 mmHg 92%
02:00 +4°C° 0 mm 2 mps 743 mmHg 92%
03:00 +3°C° 0 mm 2 mps 743 mmHg 92%
04:00 +2°C° 0 mm 2 mps 743 mmHg 93%
05:00 +2°C° 0 mm 2 mps 743 mmHg 93%
06:00 +2°C° 0 mm 3 mps 743 mmHg 89%
07:00 +3°C° 0 mm 4 mps 744 mmHg 84%
08:00 +3°C° 0 mm 5 mps 744 mmHg 80%
09:00 +3°C° 0 mm 5 mps 744 mmHg 70%
10:00 +5°C° 0 mm 5 mps 744 mmHg 60%
11:00 +5°C° 0 mm 5 mps 745 mmHg 50%
12:00 +6°C° 0 mm 5 mps 745 mmHg 46%
13:00 +7°C° 0 mm 5 mps 745 mmHg 42%
14:00 +7°C° 0 mm 5 mps 745 mmHg 38%
15:00 +7°C° 0 mm 4 mps 745 mmHg 41%
16:00 +7°C° 0 mm 4 mps 745 mmHg 44%
17:00 +8°C° 0 mm 3 mps 745 mmHg 47%
18:00 +7°C° 0 mm 3 mps 745 mmHg 53%
19:00 +5°C° 0 mm 2 mps 744 mmHg 58%
20:00 +4°C° 0 mm 2 mps 744 mmHg 64%
21:00 +4°C° 0.1 mm 2 mps 744 mmHg 69%
22:00 +4°C° 0.1 mm 2 mps 744 mmHg 74%
23:00 +2°C° 0.1 mm 3 mps 744 mmHg 80%
Show more